7 * 24
多渠道服务支持
STARLINK-32567 是由 SpaceX 开发并部署的星链(Starlink)卫星网络中的一颗低轨通信卫星。该卫星属于星链计划的第三批发射任务,旨在为全球用户提供高速、低延迟的互联网服务。它运行在约 550 公里的近地轨道上,配备先进通信设备,支持宽带数据传输。作为星链系统的一部分,STARLINK-32567 有助于扩大网络覆盖范围,特别是在偏远和网络基础设施薄弱的地区。该卫星采用可回收发射技术,符合 SpaceX 的可持续航天发展目标。
美国
(US)
| 数据来源 | 国际轨道数据 |
| 星历时间: | 2025-12-20T01:44:49+0800 16小时前 查看轨道信息 |
| 半长轴: | 6861.196km |
| 偏心率: | 0.0001006 |
| 轨道倾角: | 42.996° |
| 近地点辐角 | 14.851° |
| 升交点赤经 | 9.877° |
| 平近点角 | 345.237° |
| 近地点: | 482.368km |
| 远地点: | 483.75km |
| 周期: | 94.267分钟 |
| 每日圈数: | 15.275767 |